World > North America > United States > New York   Westchester County, NY Official Site

Hourly Westchester County, NY Regional Weather

Feedback E-mail the Weather

Latest News

Westchester County, NY Weather Maps

°F °C°F °C
Westchester County Weather Map
UTC Time: 5/26/2022, 21:37
Your Time:

Westchester County, NY Regional Weather

Expires:202205262200;;618892
ASUS41 KALY 262110
RWRALY

NEW YORK STATE HOURLY WEATHER ROUNDUP
NATIONAL WEATHER SERVICE ALBANY NY
500 PM EDT THU MAY 26 2022

NOTE: "FAIR" INDICATES FEW OR NO CLOUDS BELOW 12,000 FEET WITH NO
SIGNIFICANT WEATHER AND/OR NO OBSTRUCTIONS TO VISIBILITY.


NYZ032-033-038>043-046>054-057>066-NYZ062>081-082-084-262200-
EAST

  
CITY           SKY/WX    TMP DP  RH WIND       PRES   REMARKS
ALBANY         PTSUNNY   72  52  49 SE20G28   30.07F                  
GLENS FALLS    SUNNY     71  52  50 S16G24    30.04F                  
POUGHKEEPSIE   CLOUDY    71  54  54 S9G17     30.13F                  
NEWBURGH       CLOUDY    70  55  60 SW13G20   30.15F                  
MONTGOMERY     CLOUDY    69  56  62 S10       30.13F                  
WHITE PLAINS   PTSUNNY   66  53  63 S9        30.18F                  
ISLIP          CLOUDY    65  57  75 S12       30.21F                  
NEW YORK CITY  PTSUNNY   68  55  63 S13       30.18F                  
CENTRAL PARK   MOSUNNY   68  56  65 VRB3      30.21F                  
$$


SKY/WX - Weather  TMP - Temperature  DP - Dew Point  RH - Humidity
WIND - Wind Direction/Speed PRES - Barometric Pressure VSB - Visibility
WCI - Wind Chill Index E13G22 Wind - East Wind 13 mph/Gusts of 22 mph

Trending Headlines

Westchester County Radar Loop



Westchester County Quick Facts


National Two Day Weather Forecast


E-mail the Westchester County Weather Forecast

Voice your opinion or tell us about page issues...